Location: Winnipeg
(49.8830°N, 97.1670°W)
Time: 14:51:54
(UTC-05:00)

Tianhe-1 - Visible Passes

Search period start: 22 June 2021 00:00
Search period end: 02 July 2021 00:00
Orbit: 375 x 385 km, 41.5° (Epoch: 22 June)

Date Brightness Start Highest point End Pass type
(mag) Time Alt. Az. Time Alt. Az. Time Alt. Az.
23 Jun 3.3 04:07:08 11° S 04:08:26 13° SSE 04:09:54 10° SE visible
25 Jun 2.9 03:42:03 15° S 03:42:25 15° S 03:44:20 10° SE visible
26 Jun 2.7 04:15:26 12° SW 04:17:15 18° S 04:19:29 10° SE visible
27 Jun 3.0 03:16:42 16° SSE 03:16:42 16° SSE 03:18:04 10° SE visible
28 Jun 2.7 03:50:07 17° SSW 03:50:33 17° S 03:52:41 10° SE visible
29 Jun 3.1 04:23:41 11° SW 04:24:57 13° SSW 04:26:27 10° SSE visible
